WetterOnline ( https://www.wetteronline.de )

Wetter aktuell Dollnstein

Aktuelles Wetter: Gelbelsee (539m)

6-stündlich | Neueste Meldungen
Ortszeit Temperatur Wetter
So, 29.03. 8:00 1.8° C wolkenlos
So, 29.03. 1:00 5.0° C wolkenlos
Sa, 28.03. 19:00 12.6° C bewölkt
Sa, 28.03. 13:00 13.7° C wolkenlos
Sa, 28.03. 7:00 4.5° C wolkenlos
Sa, 28.03. 1:00 6.5° C wolkenlos
Fr, 27.03. 19:00 10.9° C wolkenlos
Fr, 27.03. 13:00 13.5° C wolkenlos
Ortszeit Temperatur Wetter
So, 29.03. 12:00 6.4° C bedeckt
So, 29.03. 11:50 6.4° C bedeckt
So, 29.03. 11:40 5.9° C bedeckt
So, 29.03. 11:30 5.4° C bewölkt
So, 29.03. 11:20 5.4° C bewölkt
So, 29.03. 11:10 5.4° C bedeckt
So, 29.03. 11:00 5.1° C bedeckt
So, 29.03. 10:30 4.8° C wolkig
So, 29.03. 10:00 4.5° C bewölkt
So, 29.03. 9:30 4.0° C leicht bewölkt
So, 29.03. 9:00 2.8° C wolkenlos
Ortszeit Relative Feuchte Sichtweite
So, 29.03. 8:00 78% 17 km
So, 29.03. 1:00 66% 21 km
Sa, 28.03. 19:00 47% 27 km
Sa, 28.03. 13:00 36% 50 km
Sa, 28.03. 7:00 68% 29 km
Sa, 28.03. 1:00 62% 27 km
Fr, 27.03. 19:00 50% 19 km
Fr, 27.03. 13:00 45% 35 km
Ortszeit Relative Feuchte Sichtweite
So, 29.03. 12:00 62% 26 km
So, 29.03. 11:50 62% -
So, 29.03. 11:40 64% -
So, 29.03. 11:30 66% 21 km
So, 29.03. 11:20 66% -
So, 29.03. 11:10 66% -
So, 29.03. 11:00 66% 22 km
So, 29.03. 10:30 69% 20 km
So, 29.03. 10:00 70% 20 km
So, 29.03. 9:30 73% 20 km
So, 29.03. 9:00 76% 18 km
Ortszeit Niederschlagsmenge Niederschlagsart
So, 29.03. 8:00 0.0 l/m2 in 12 Std. -
So, 29.03. 1:00 0.0 l/m2 in 6 Std. -
Sa, 28.03. 19:00 0.0 l/m2 in 12 Std. -
Sa, 28.03. 13:00 0.0 l/m2 in 6 Std. -
Sa, 28.03. 7:00 0.0 l/m2 in 12 Std. -
Sa, 28.03. 1:00 0.0 l/m2 in 6 Std. -
Fr, 27.03. 19:00 0.0 l/m2 in 12 Std. -
Fr, 27.03. 13:00 0.0 l/m2 in 6 Std. -
Ortszeit Niederschlagsmenge Niederschlagsart
So, 29.03. 12:00 0.0 l/m2 in 1 Std. -
So, 29.03. 11:50 keine Meldung -
So, 29.03. 11:40 keine Meldung -
So, 29.03. 11:30 0.0 l/m2 in 1 Std. -
So, 29.03. 11:20 keine Meldung -
So, 29.03. 11:10 keine Meldung -
So, 29.03. 11:00 0.0 l/m2 in 1 Std. -
So, 29.03. 10:30 0.0 l/m2 in 1 Std. -
So, 29.03. 10:00 0.0 l/m2 in 1 Std. -
So, 29.03. 9:30 0.0 l/m2 in 1 Std. -
So, 29.03. 9:00 0.0 l/m2 in 1 Std. -
Ortszeit Stärke Spitze Richtung
km/h Bft. km/h Grad Sektor
So, 29.03. 8:00 11 2 22 350° N
So, 29.03. 1:00 7 2 29 360° N
Sa, 28.03. 19:00 11 2 25 350° N
Sa, 28.03. 13:00 14 3 32 60° NO
Sa, 28.03. 7:00 7 2 22 10° N
Sa, 28.03. 1:00 11 2 26 40° NO
Fr, 27.03. 19:00 11 2 40 100° O
Fr, 27.03. 13:00 22 4 41 80° O
Ortszeit Stärke Spitze Richtung
km/h Bft. km/h Grad Sektor
So, 29.03. 12:00 15 3 20 350° N
So, 29.03. 11:50 15 3 - 350° N
So, 29.03. 11:40 11 2 - 360° N
So, 29.03. 11:30 11 2 18 360° N
So, 29.03. 11:20 11 2 - 360° N
So, 29.03. 11:10 13 3 - 10° N
So, 29.03. 11:00 14 3 22 10° N
So, 29.03. 10:30 13 3 22 10° N
So, 29.03. 10:00 14 3 29 30° NO
So, 29.03. 9:30 13 3 22 30° NO
So, 29.03. 9:00 14 3 18 10° N
Ortszeit Untergrenze Bedeckung Gattung
total tief tief mittel hoch
So, 29.03. 8:00 - 0/8 0/8 - - -
So, 29.03. 1:00 - 0/8 0/8 - - -
Sa, 28.03. 19:00 2100 m 7/8 7/8 - - -
Sa, 28.03. 13:00 - 0/8 0/8 - - -
Sa, 28.03. 7:00 - 0/8 0/8 - - -
Sa, 28.03. 1:00 - 0/8 0/8 - - -
Fr, 27.03. 19:00 - 0/8 0/8 - - -
Fr, 27.03. 13:00 - 0/8 0/8 - - -
Ortszeit Bedeckungsgrad in Achtel und Wolkenuntergrenze
So, 29.03. 12:00 1(1350m) 8(2100m) 8(2700m)
So, 29.03. 11:50 1(1350m) 8(2100m) 8(2700m)
So, 29.03. 11:40 1(1380m) 7(1500m) 8(2700m)
So, 29.03. 11:30 7(1500m) 7(2400m) 8(2700m)
So, 29.03. 11:20 7(1500m) 7(2400m)
So, 29.03. 11:10 6(1500m) 8(2400m)
So, 29.03. 11:00 1(1500m) 8(2400m) 8(4800m)
So, 29.03. 10:30 5(2100m) 7(4800m)
So, 29.03. 10:00 7(2100m) 7(4500m)
So, 29.03. 9:30 2(2100m)
So, 29.03. 9:00 keine Wolken
Ortszeit Luftdruck NN (hPa) Tendenz (hPa in 3 Std.)
So, 29.03. 8:00 1020 + 0,7
So, 29.03. 1:00 1019 + 0,4
Sa, 28.03. 19:00 1015 + 0,2
Sa, 28.03. 13:00 1016 - 0,6
Sa, 28.03. 7:00 1018 + 0,4
Sa, 28.03. 1:00 1017 0,0
Fr, 27.03. 19:00 1015 + 0,7
Fr, 27.03. 13:00 1015 + 0,2
Ortszeit Luftdruck NN (hPa) Tendenz (hPa in 3 Std.)
So, 29.03. 12:00 1019 + 0,6
So, 29.03. 11:50 1019 keine Meldung
So, 29.03. 11:40 1019 keine Meldung
So, 29.03. 11:30 1019 + 0,6
So, 29.03. 11:20 1019 keine Meldung
So, 29.03. 11:10 1019 keine Meldung
So, 29.03. 11:00 1019 + 0,6
So, 29.03. 10:30 1020 + 1,0
So, 29.03. 10:00 1019 + 0,7
So, 29.03. 9:30 1019 + 0,7
So, 29.03. 9:00 1019 + 0,6
Ortszeit Schneehöhe (cm)
So, 29.03. 8:00 0
So, 29.03. 1:00 0
Sa, 28.03. 19:00 0
Sa, 28.03. 13:00 0
Sa, 28.03. 7:00 0
Sa, 28.03. 1:00 0
Fr, 27.03. 19:00 0
Fr, 27.03. 13:00 0
Ortszeit Schneehöhe (cm)
So, 29.03. 12:00 0
So, 29.03. 11:50 0
So, 29.03. 11:40 0
So, 29.03. 11:30 0
So, 29.03. 11:20 0
So, 29.03. 11:10 0
So, 29.03. 11:00 0
So, 29.03. 10:30 0
So, 29.03. 10:00 0
So, 29.03. 9:30 0
So, 29.03. 9:00 0
Link zu dieser Seite / Seite empfehlen

Das Wetter in ...